COSMOS 970 DEB

Satellite information

Favourite Embed

Satellite Type and Status

DEBRISIN ORBIT

Key statistics

Satellite COSMOS 970 DEB at a glance.

Uptime

17524

Days in orbit

Revolutions

≈ 14.1

Per day

Orbit

LEO

Low Earth Orbit

Inclination

66.2

Latest

Satellite identification and parameters

Extended collection of information and parameters for COSMOS 970 DEB.

Object identification

Identified? True

Debris? True

Object name: COSMOS 970 DEB

International designator: 1977-121AQ

Object number (NORAD): 12862

Object ID (CCSDS): 12862

Country: COMMONWEALTH OF INDEPENDENT STATES (CIS)

Current information (Y/N): Y

RCS size: SMALL

Orbital parameters

Period: 101.903 minutes

Inclination: 66.2056 deg

SMA: 7226.914 km

Apoapsis: 952.191 km

Periapsis: 745.366 km

RAAN: 220.5405 deg

Eccentricy: 0.01430935

Argument of periapsis: 302.8326 deg

Mean anomaly: 216.2507 deg

Mean motion: 14.13101772 rev/day

Mean motion (dot): 0.00002424 rev/day2

B* drag term: 0.0012165909 1/REarth

Two-line elements (TLE)

Creation date: Dec. 12, 2025, 10:14 a.m.

Reference frame: TEME

Reference center: EARTH

Epoch: Dec. 12, 2025, 3:03 a.m. UTC

TLE line 0: 0 COSMOS 970 DEB

TLE line 1: 1 12862U 77121AQ 25346.12743177 .00002424 00000-0 12166-2 0 9999

TLE line 2: 2 12862 66.2056 220.5405 0143093 302.8326 216.2507 14.13101772324412

Live tracking on map

Real-time ground track for satellite COSMOS 970 DEB.

In-orbit conjunctions

A list of the most updated potential collisions computed for object COSMOS 970 DEB.

Target Orbit TCA Probability of collision Miss distance Type
METEOR 2-6 LEO 2025-06-24 22:10:46 0.0001253355 956.0 (m) PAYLOAD
DMSP 5D-2 F14 DEB SSO 2025-02-22 21:56:32 0.0001621002 223.0 (m) DEBRIS

Associated space launch

Second generation ASAT satellite

COSMOS 970 DEB was lifted into orbit during the mission ‘Tsiklon-2 | IS-A 8’, on board a Tsiklon-2 space rocket.

The launch took place on Dec. 21, 1977, 10:35 a.m. from 90.

For more information about the launch, click the button.

Launch to space Tsiklon-2 | IS-A 8
Tsiklon-2 | IS-A 8

Agency: N/A

Status: Launch Successful

Launch date: Dec. 21, 1977, 10:35 a.m. UTC

Rocket: Tsiklon-2

Launch pad: 90

Location: Baikonur Cosmodrome, Republic of Kazakhstan

...

Latest news about this satellite

There are no fresh news available about this satellite. Check back as we update our databases every day.


Newsletter sign-up

Weekly statistics, charts and insights to help you stay on top of the space industry.